Weather History for Clinton-Sherman, OK

Change the Weather History Date:

Wednesday, September 25, 2013

  Actual Average Record
Temperature  
Mean Temperature 76 °F -  
Max Temperature 91 °F 80 °F 96 °F (1998)
Min Temperature 61 °F 56 °F 39 °F (2000)
Cooling Degree Days 11    
Growing Degree Days 26 (Base 50)    
Moisture  
Dew Point 47 °F    
Average Humidity 38    
Maximum Humidity 58    
Minimum Humidity 20    
Precipitation  
Precipitation 0.00 in - - ()
Sea Level Pressure  
Sea Level Pressure 29.81 in    
Wind  
Wind Speed 9 mph (SSE)    
Max Wind Speed 22 mph    
Max Gust Speed 29 mph    
Visibility 10 miles    
Events      
Averages and records for this station are not official NWS values.
T = Trace of Precipitation, MM = Missing Value Source: NWS Daily Summary

Daily Weather History Graph

Daily Weather History Graph

Search for Another Location

Airport:

Trip Planner

Search our weather history database for the weather conditions in past years. The results will help you decide how hot, cold, wet, or windy it might be!

Date:

Astronomy

Sep. 25, 2013 Rise Set
Actual Time 7:27 AM CDT 7:28 PM CDT
Civil Twilight 7:01 AM CDT 7:54 PM CDT
Nautical Twilight 6:32 AM CDT 8:23 PM CDT
Astronomical Twilight 6:02 AM CDT 8:53 PM CDT
Moon 11:47 PM CDT (9/25) 1:23 PM CDT (9/25)
Length of Visible Light 12h 52m
Length of Day
12h 01m
Waning Gibbous, 64% of the Moon is Illuminated
Sep 25
Waning Gibbous
Sep 26
Last Quarter
Oct 4
New
Oct 11
First Quarter
Oct 18
Full

Hourly Weather History & Observations

Time (CDT) Temp. Dew Point Humidity Pressure Visibility Wind Dir Wind Speed Gust Speed Precip Events Conditions
12:53 AM 68.0 °F 42.1 °F 39% 29.89 in 10.0 mi NNE 3.5 mph - N/A   Clear
1:53 AM 64.0 °F 42.1 °F 45% 29.89 in 10.0 mi ENE 3.5 mph - N/A   Clear
2:53 AM 61.0 °F 45.0 °F 56% 29.89 in 10.0 mi ENE 4.6 mph - N/A   Clear
3:53 AM 64.0 °F 44.1 °F 48% 29.87 in 10.0 mi ESE 4.6 mph - N/A   Clear
4:53 AM 63.0 °F 44.1 °F 50% 29.87 in 10.0 mi ESE 6.9 mph - N/A   Clear
5:53 AM 62.1 °F 46.9 °F 58% 29.87 in 10.0 mi SE 6.9 mph - N/A   Clear
6:53 AM 61.0 °F 46.0 °F 58% 29.88 in 10.0 mi SE 6.9 mph - N/A   Clear
7:53 AM 61.0 °F 45.0 °F 56% 29.89 in 10.0 mi ESE 6.9 mph - N/A   Clear
8:53 AM 66.9 °F 45.0 °F 45% 29.89 in 10.0 mi SE 6.9 mph - N/A   Clear
9:53 AM 73.9 °F 43.0 °F 33% 29.89 in 10.0 mi SSE 8.1 mph - N/A   Clear
10:53 AM 79.0 °F 44.1 °F 29% 29.89 in 10.0 mi South 10.4 mph - N/A   Clear
11:53 AM 82.0 °F 43.0 °F 25% 29.87 in 10.0 mi South 15.0 mph - N/A   Clear
12:53 PM 86.0 °F 45.0 °F 24% 29.83 in 10.0 mi South 17.3 mph - N/A   Clear
1:53 PM 89.1 °F 48.9 °F 25% 29.80 in 10.0 mi SSW 17.3 mph 26.5 mph N/A   Clear
2:53 PM 90.0 °F 46.9 °F 23% 29.76 in 10.0 mi South 19.6 mph 25.3 mph N/A   Clear
3:53 PM 91.0 °F 46.0 °F 21% 29.74 in 10.0 mi South 17.3 mph 26.5 mph N/A   Clear
4:53 PM 91.0 °F 44.1 °F 20% 29.72 in 10.0 mi South 18.4 mph 25.3 mph N/A   Clear
5:53 PM 90.0 °F 46.9 °F 23% 29.71 in 10.0 mi South 21.9 mph 28.8 mph N/A   Clear
6:53 PM 87.1 °F 48.9 °F 27% 29.70 in 10.0 mi SSE 17.3 mph - N/A   Clear
7:53 PM 82.0 °F 50.0 °F 33% 29.71 in 10.0 mi SSE 11.5 mph - N/A   Clear
8:53 PM 80.1 °F 51.1 °F 36% 29.72 in 10.0 mi SE 12.7 mph - N/A   Clear
9:53 PM 78.1 °F 53.1 °F 42% 29.72 in 10.0 mi SSE 16.1 mph - N/A   Clear
10:53 PM 77.0 °F 54.0 °F 45% 29.71 in 10.0 mi SSE 17.3 mph - N/A   Clear
11:53 PM 75.0 °F 55.0 °F 50% 29.71 in 10.0 mi SSE 15.0 mph - N/A   Clear